TimeCDT,TemperatureF,Dew PointF,Humidity,Sea Level PressureIn,VisibilityMPH,Wind Direction,Wind SpeedMPH,Gust SpeedMPH,PrecipitationIn,Events,Conditions,WindDirDegrees,DateUTC
12:53 AM,57.0,53.1,87,29.98,10.0,WSW,3.5,-,N/A,,Clear,250,2013-08-03 05:53:00
1:53 AM,55.9,52.0,87,29.99,10.0,West,3.5,-,N/A,,Clear,280,2013-08-03 06:53:00
2:53 AM,55.0,52.0,89,30.00,10.0,Calm,Calm,-,N/A,,Clear,0,2013-08-03 07:53:00
3:53 AM,54.0,52.0,93,30.01,10.0,Calm,Calm,-,N/A,,Clear,0,2013-08-03 08:53:00
4:53 AM,53.1,51.1,93,30.02,10.0,South,3.5,-,N/A,,Clear,170,2013-08-03 09:53:00
5:53 AM,52.0,51.1,97,30.04,10.0,West,4.6,-,N/A,,Clear,280,2013-08-03 10:53:00
6:53 AM,57.0,52.0,83,30.04,10.0,NNW,4.6,-,N/A,,Clear,330,2013-08-03 11:53:00
7:53 AM,62.1,54.0,75,30.05,10.0,North,6.9,-,N/A,,Clear,10,2013-08-03 12:53:00
8:53 AM,68.0,53.1,59,30.06,10.0,North,4.6,-,N/A,,Clear,10,2013-08-03 13:53:00
9:53 AM,70.0,53.1,55,30.06,10.0,NNE,4.6,-,N/A,,Clear,30,2013-08-03 14:53:00
10:53 AM,71.1,54.0,55,30.08,10.0,North,6.9,-,N/A,,Clear,350,2013-08-03 15:53:00
11:53 AM,73.0,52.0,48,30.08,10.0,WNW,9.2,-,N/A,,Partly Cloudy,300,2013-08-03 16:53:00
12:53 PM,75.0,52.0,44,30.08,10.0,NW,8.1,-,N/A,,Partly Cloudy,310,2013-08-03 17:53:00
1:53 PM,73.9,53.1,48,30.08,10.0,NW,8.1,-,N/A,,Scattered Clouds,320,2013-08-03 18:53:00
2:53 PM,75.0,53.1,46,30.08,10.0,NW,9.2,-,N/A,,Clear,310,2013-08-03 19:53:00
3:53 PM,75.9,53.1,45,30.07,10.0,West,8.1,-,N/A,,Partly Cloudy,270,2013-08-03 20:53:00
4:53 PM,75.9,51.1,42,30.07,10.0,NW,12.7,-,N/A,,Clear,310,2013-08-03 21:53:00
5:53 PM,75.0,53.1,46,30.07,10.0,WNW,9.2,-,N/A,,Clear,290,2013-08-03 22:53:00
6:53 PM,72.0,51.1,48,30.07,10.0,NNW,6.9,-,N/A,,Overcast,340,2013-08-03 23:53:00
7:53 PM,70.0,55.0,59,30.08,10.0,Calm,Calm,-,N/A,,Scattered Clouds,0,2013-08-04 00:53:00
8:53 PM,64.9,54.0,68,30.09,10.0,NNW,5.8,-,N/A,,Clear,330,2013-08-04 01:53:00
9:53 PM,66.0,57.9,75,30.12,10.0,NNE,9.2,-,N/A,,Partly Cloudy,30,2013-08-04 02:53:00
10:53 PM,64.0,57.9,80,30.14,10.0,NNE,6.9,-,N/A,,Clear,30,2013-08-04 03:53:00
11:53 PM,60.1,57.0,90,30.16,10.0,North,3.5,-,N/A,,Clear,350,2013-08-04 04:53:00